Weather in Owings Mills

United States     39°25′08″N   76°46′48″W
temp.,
°C
wind,
m/s
gust,
m/s
humid.,
%
clouds,
%
prec.,
mm/h
press.,
hPa
HPBL,
m
23 january, sat
sat2301:00−4nw611590 0.0 10181097
04:00−4nw596262 0.0 10191157
07:00−4nw6135267 0.1 10211510
10:00−3nw712430 0.0 10241505
13:00−1nw7114047 0.0 10231581
16:00−1nw7114238 0.0 10241547
19:00−4nw611550 0.0 10251045
22:00−4nw510590 0.0 10271011
24 january, sun
sun2401:00−5nw5106010 0.0 1027846
04:00−5nw5106178 0.0 1027756
07:00−6nw496255 0.0 1027615
10:00−4nw475030 0.0 1027582
13:000wnw343646 0.0 1024788
16:00+1w133710 0.0 1022574
19:00−1sw114650 0.0 102224
22:00−1e014797 0.0 102221
25 january, mon
mon2501:00−1ene125295 0.0 101942
04:00−2e115481 0.0 101848
07:00−2ne125586 0.0 102064
10:00+1e1247100 0.0 1020267
13:00+2ese1247100 0.0 1018499
16:00+2ese2461100 0.0 1018411
19:000e3685100 0.7 1018457
22:00−1e3694100 1.4 1016379
26 january, tue
tue2601:00−2e51097100 8.6 1015538
04:00−1e61196100 2.8 1013399
07:00−1e51097100 6.9 1013403
10:000e4799100 0.9 1014259
13:00+1e48100100 1.4 1011235
16:00+2e36100100 0.1 1010186
19:00+1e1210099 0.2 101253
22:00+1sse11100100 1.1 101524
27 january, wed
wed2701:00+3w23100100 0.8 101472
04:00+2wnw2699100 0.0 1016173
07:00+2n22100100 0.0 102044
10:00+4nnw25867 0.0 1020399
13:00+6w237214 0.0 1020838
16:00+5wnw127678 0.1 1019588
19:00+3ne128459 0.1 101941
22:00+3ene2597100 0.0 1018186